This is the latest recevied weather packets stored in our database for station/object DL3MEB-6. If no packets are shown the sender has not sent any weather packets the latest 10 day(s).
| Time | Temp. | Humidity | Pressure | Rain* | Wind** | Luminosity | Snow |
|---|---|---|---|---|---|---|---|
| 1777812693 | 28.33° C | 20% | 1011.1 hPa | 0 mm | - | - | - |
| 1777811783 | 28.33° C | 21% | 1011.3 hPa | 0 mm | - | - | - |
| 1777810873 | 27.78° C | 21% | 1011.6 hPa | 0 mm | - | - | - |
| 1777809965 | 27.22° C | 27% | 1011.5 hPa | 0 mm | - | - | - |
| 1777809059 | 27.22° C | 21% | 1011.8 hPa | 0 mm | - | - | - |
| 1777808145 | 26.67° C | 22% | 1012 hPa | 0 mm | - | - | - |
| 1777807237 | 26.67° C | 24% | 1012.2 hPa | 0 mm | - | - | - |
| 1777806337 | 25.56° C | 25% | 1012.3 hPa | 0 mm | - | - | - |
| 1777805428 | 25° C | 30% | 1012.4 hPa | 0 mm | - | - | - |
| 1777804522 | 24.44° C | 31% | 1012.9 hPa | 0 mm | - | - | - |
| 1777803620 | 23.89° C | 32% | 1013 hPa | 0 mm | - | - | - |
| 1777802721 | 23.33° C | 36% | 1013.1 hPa | 0 mm | - | - | - |
| 1777801812 | 22.22° C | 42% | 1013.4 hPa | 0 mm | - | - | - |
| 1777800908 | 21.11° C | 43% | 1013.7 hPa | 0 mm | - | - | - |
| 1777800007 | 20.56° C | 44% | 1014 hPa | 0 mm | - | - | - |
| 1777799106 | 19.44° C | 46% | 1014.1 hPa | 0 mm | - | - | - |
| 1777798207 | 19.44° C | 46% | 1014.2 hPa | 0 mm | - | - | - |
| 1777797301 | 18.89° C | 48% | 1014.3 hPa | 0 mm | - | - | - |
| 1777796394 | 17.78° C | 49% | 1014.5 hPa | 0 mm | - | - | - |
| 1777795488 | 16.67° C | 52% | 1014.5 hPa | 0 mm | - | - | - |
| 1777794586 | 15.56° C | 57% | 1014.5 hPa | 0 mm | - | - | - |
| 1777793683 | 15° C | 58% | 1014.7 hPa | 0 mm | - | - | - |
| 1777792771 | 13.89° C | 60% | 1014.9 hPa | 0 mm | - | - | - |
| 1777791863 | 13.33° C | 62% | 1014.7 hPa | 0 mm | - | - | - |
| 1777790956 | 12.22° C | 65% | 1014.9 hPa | 0 mm | - | - | - |
* Rain latest hour (hover to see other rain measurements)
** Current wind speed in m/s (hover to see current wind gust speed)